[Iaude] MPEC A142: 2024 AP3 [a=1.08,e=0.10,i=29.3,H=24.2]

mpec at marsden.cfa.harvard.edu mpec at marsden.cfa.harvard.edu
Fri Jan 12 08:33:49 EST 2024


M.P.E.C. 2024-A142                             Issued 2024 January 12, 13:32 UT

     The Minor Planet Electronic Circulars contain information on unusual
         minor planets, routine data on comets and natural satellites,
         and occasional editorial announcements.  They are published
    on behalf of Division F of the International Astronomical Union by the
          Minor Planet Center, Smithsonian Astrophysical Observatory,
                          Cambridge, MA 02138, U.S.A.
			  
             Prepared using the Tamkin Foundation Computer Network

                              MPC at CFA.HARVARD.EDU
            URL https://www.minorplanetcenter.net/    ISSN 1523-6714

                                    2024 AP3                                    


Observations:
     K24A03P  C2024 01 03.38865506 44 54.027-19 33 42.90         21.49GVEA142F52
     K24A03P  C2024 01 03.40031306 44 50.228-19 31 57.17         20.57GVEA142F52
     K24A03P*1C2024 01 11.25799705 52 12.461+11 25 41.38         20.03GVEA142G96
     K24A03P 1C2024 01 11.26362005 52 09.311+11 27 27.18         19.85GVEA142G96
     K24A03P 1C2024 01 11.26925205 52 06.164+11 29 13.70         19.90GVEA142G96
     K24A03P KC2024 01 11.29365605 51 52.376+11 36 57.60         20.05GVEA142V06
     K24A03P KC2024 01 11.29430005 51 52.024+11 37 10.16         19.90GVEA142V06
     K24A03P KC2024 01 11.29494505 51 51.656+11 37 22.40         20.25GVEA142V06
     K24A03P KC2024 01 11.34720205 51 22.300+11 53 54.40         19.83GVEA142V06
     K24A03P KC2024 01 11.34909005 51 21.240+11 54 28.90         19.51GVEA142V06
     K24A03P KB2024 01 11.79739 05 47 26.55 +14 17 35.5          18.9 RZEA142106
     K24A03P KB2024 01 11.80424 05 47 22.63 +14 19 48.4          19.7 RZEA142106
     K24A03P KB2024 01 11.81098 05 47 18.78 +14 21 59.0          19.7 RZEA142106
     K24A03P KB2024 01 11.81756 05 47 14.99 +14 24 06.7                ZEA142106
     K24A03P KC2024 01 11.84834005 46 57.31 +14 34 04.3          19.9 GVEA142L01
     K24A03P IC2024 01 11.85019105 46 56.18 +14 34 40.4          19.9 GVEA142L01
     K24A03P IC2024 01 11.85130005 46 55.53 +14 35 01.6          20.2 GVEA142L01
     K24A03P KC2024 01 11.85425805 46 53.87 +14 35 58.7          20.1 GVEA142L01
     K24A03P KB2024 01 11.94832 05 45 59.80 +15 06 23.2          19.4 VZEA142C95
     K24A03P KB2024 01 11.96360405 45 51.48 +15 11 19.9          20.0 GXEA142958
     K24A03P KB2024 01 11.96864505 45 48.49 +15 12 58.6          19.7 GXEA142958
     K24A03P KB2024 01 11.97109 05 45 46.59 +15 13 44.1          19.9 VZEA142C95
     K24A03P KB2024 01 11.97363805 45 45.69 +15 14 35.2                XEA142958
     K24A03P KC2024 01 11.98327 05 45 39.29 +15 17 37.3                VEA142204
     K24A03P KC2024 01 11.98881 05 45 36.05 +15 19 24.4                VEA142204
     K24A03P KC2024 01 11.99631 05 45 31.68 +15 21 49.6          20.1 GVEA142204

Observer details:
106 Crni Vrh.  Observer J. Vales.  0.60-m f/3.3 reflector + CMO.
204 Schiaparelli Observatory.  Observers L. Buzzi, G. Galli.  0.84-m f/3.5
    reflector + CCD.
958 Observatoire de Dax.  Observer P. Dupouy.  0.50-m f/4.5 Reflector + CMO.
C95 SATINO Remote Observatory, Haute Provence.  Observers D. Husar, K. Meo.
    Measurer D. Husar.  0.30-m f/5.8 reflector + CMO.
F52 Pan-STARRS 2, Haleakala.  Observers J. Herman, T. Lowe, P. Minguez, A.
    Schultz, I. Smith.  Measurers K. Chambers, T. de Boer, J. Fairlamb, H.
    Gao, M. Huber, C.-C. Lin, E. Magnier, Y. Ramanjooloo, R. Wainscoat, R.
    Weryk.  1.8-m Ritchey-Chretien + CCD.
G96 Mt. Lemmon Survey.  Observer J. K. Hogan.  Measurers T. Beuden, V. F.
    Carvajal, D. Fay, J. B. Fazekas, D. C. Fuls, A. R. Gibbs, A. D. Grauer, H.
    Groeller, J. K. Hogan, R. A. Kowalski, S. M. Larson, G. J. Leonard, D.
    Rankin, R. L. Seaman, F. C. Shelly, K. W. Wierzchos.  1.5-m reflector +
    10K CCD.
L01 Visnjan Observatory, Tican.  Observers K. Korlevic, L. Poropat.  Measurer
    K. Korlevic.  1.0-m f/2.9 reflector + CCD.
V06 Catalina Sky Survey-Kuiper.  Observer K. W. Wierzchos.  Measurers T.
    Beuden, V. F. Carvajal, D. Fay, J. B. Fazekas, D. C. Fuls, A. R. Gibbs, A.
    D. Grauer, H. Groeller, J. K. Hogan, R. A. Kowalski, S. M. Larson, G. J.
    Leonard, D. Rankin, R. L. Seaman, F. C. Shelly, K. W. Wierzchos.  1.55-m
    reflector + 1K CCD.

Orbital elements:
2024 AP3                                                 Earth MOID = 0.0502 AU
Epoch 2023 Sept. 13.0 TT = JDT 2460200.5                Veres                   
M 176.18345              (2000.0)            P               Q                  
n   0.88388595     Peri.   87.51972     -0.83272182     +0.30930941             
a   1.0753221      Node   110.18523     -0.43302043     -0.88069646             
e   0.1048874      Incl.   29.29406     +0.34506183     -0.35874981             
P   1.12           H   24.21          G   0.15           U   8                  
Residuals in seconds of arc
240103 F52  0.0   0.2+    240111 V06  0.4-  0.9-    240111 C95  0.4-  0.6-
240103 F52  0.1+  0.2-    240111 106  0.2+  0.0     240111 958  0.1-  0.9-
240111 G96 (0.3-  1.0+)   240111 106  0.2+  0.1+    240111 958  0.7-  0.1+
240111 G96  0.1-  0.0     240111 106  0.4+  0.1+    240111 C95  0.8+  0.7-
240111 G96  0.3+  0.4-    240111 106  0.2+  0.2+    240111 958  1.0+  0.0
240111 V06  0.3-  0.2+    240111 L01  0.5+  0.1+    240111 204  0.5+  0.0
240111 V06  0.1-  0.6+    240111 L01  0.4-  0.4+    240111 204  0.2+  0.1-
240111 V06  0.2-  0.6+    240111 L01  0.5-  0.1+    240111 204  0.0   0.0
240111 V06  0.4-  0.5+    240111 L01  0.2+  0.2-

Ephemeris:
2024 AP3                 a,e,i = 1.08, 0.10, 29                  q = 0.9625
Date    TT    R. A. (2000) Decl.     Delta      r    Elong.  Phase     V
2023 12 13    07 37 39.6 -39 49 23   0.2866  1.1122   109.2    56.7    23.8
...
2023 12 28    07 10 06.5 -30 57 24   0.1674  1.0873   124.6    48.1    22.3
...
2024 01 05    06 36 25.2 -15 03 01   0.1119  1.0735   141.8    34.5    21.0
...
2024 01 11    05 54 27.8 +10 04 49   0.08702 1.0630   155.0    23.0    20.1
2024 01 12    05 45 32.7 +15 23 41   0.08551 1.0612   154.4    23.6    20.1
2024 01 13    05 35 59.5 +20 49 23   0.08491 1.0595   152.3    25.5    20.1
...
2024 01 19    04 24 36.9 +49 10 21   0.09956 1.0490   128.7    47.0    21.1
...
2024 01 27    02 23 50.3 +66 08 13   0.1480  1.0353   106.0    66.1    22.5
...
2024 02 11    23 40 56.0 +70 58 16   0.2570  1.0110    88.0    77.3    24.0

M. P. C. Staff               (C) Copyright 2024 MPC           M.P.E.C. 2024-A142





More information about the Iaude mailing list